• în Republica Moldova
  • Lista ţărilor
  • Pe 7 zile
  • Temperatura apei
  • Hartă satelitară
  • Meteo pe hartă
  • Widget-uri
  • user-avatar
    Intrare

    Meteo pe oră la Berat

    Astăzi, 13 Decembrie, Miercuri

    Timp Temperatura Precipitaţii Vânt Presiune Umiditate
    00:00 +10°C° 0 mm 4 m/s 749 mmHg 91%
    01:00 +10°C° 0 mm 3 m/s 749 mmHg 91%
    02:00 +10°C° 0 mm 3 m/s 749 mmHg 91%
    03:00 +10°C° 0 mm 3 m/s 749 mmHg 91%
    04:00 +10°C° 0 mm 3 m/s 749 mmHg 91%
    05:00 +10°C° 0 mm 3 m/s 749 mmHg 91%
    06:00 +10°C° 0 mm 4 m/s 749 mmHg 91%
    07:00 +10°C° 0 mm 4 m/s 749 mmHg 91%
    08:00 +11°C° 0 mm 4 m/s 749 mmHg 87%
    09:00 +12°C° 0 mm 4 m/s 749 mmHg 83%
    10:00 +14°C° 0 mm 4 m/s 749 mmHg 80%
    11:00 +14°C° 0 mm 4 m/s 748 mmHg 76%
    12:00 +15°C° 0 mm 4 m/s 748 mmHg 73%
    13:00 +16°C° 0 mm 5 m/s 747 mmHg 70%
    14:00 +15°C° 0 mm 4 m/s 747 mmHg 75%
    15:00 +14°C° 0 mm 4 m/s 747 mmHg 80%
    16:00 +13°C° 0 mm 4 m/s 746 mmHg 84%
    17:00 +12°C° 0,1 mm 4 m/s 746 mmHg 86%
    18:00 +12°C° 0,1 mm 4 m/s 746 mmHg 88%
    19:00 +12°C° 0,1 mm 4 m/s 746 mmHg 90%
    20:00 +12°C° 0,9 mm 4 m/s 746 mmHg 91%
    21:00 +12°C° 0,9 mm 4 m/s 746 mmHg 92%
    22:00 +12°C° 0,9 mm 4 m/s 746 mmHg 93%
    23:00 +12°C° 1,3 mm 4 m/s 746 mmHg 94%

    Mâine, 14 Decembrie, Joi

    Timp Temperatura Precipitaţii Vânt Presiune Umiditate
    00:00 +11°C° 1,3 mm 3 m/s 746 mmHg 94%
    01:00 +11°C° 1,3 mm 3 m/s 746 mmHg 94%
    02:00 +11°C° 0,4 mm 3 m/s 745 mmHg 94%
    03:00 +12°C° 0,4 mm 2 m/s 745 mmHg 93%
    04:00 +12°C° 0,4 mm 2 m/s 745 mmHg 93%
    05:00 +10°C° 0,1 mm 2 m/s 745 mmHg 93%
    06:00 +10°C° 0,1 mm 2 m/s 746 mmHg 93%
    07:00 +10°C° 0,1 mm 2 m/s 746 mmHg 93%
    08:00 +10°C° 0 mm 2 m/s 746 mmHg 86%
    09:00 +12°C° 0 mm 2 m/s 746 mmHg 79%
    10:00 +13°C° 0 mm 2 m/s 746 mmHg 73%
    11:00 +13°C° 0 mm 2 m/s 746 mmHg 68%
    12:00 +13°C° 0 mm 2 m/s 746 mmHg 64%
    13:00 +13°C° 0 mm 2 m/s 746 mmHg 60%
    14:00 +13°C° 0 mm 2 m/s 746 mmHg 64%
    15:00 +12°C° 0 mm 1 m/s 746 mmHg 67%
    16:00 +11°C° 0 mm 1 m/s 746 mmHg 71%
    17:00 +11°C° 0 mm 1 m/s 746 mmHg 73%
    18:00 +10°C° 0 mm 1 m/s 746 mmHg 75%
    19:00 +9°C° 0 mm 2 m/s 747 mmHg 77%
    20:00 +8°C° 0 mm 2 m/s 747 mmHg 78%
    21:00 +8°C° 0 mm 2 m/s 747 mmHg 78%
    22:00 +8°C° 0 mm 2 m/s 747 mmHg 79%
    23:00 +8°C° 0 mm 3 m/s 746 mmHg 80%

    Poimâine, 15 Decembrie, Vineri

    Timp Temperatura Precipitaţii Vânt Presiune Umiditate
    00:00 +8°C° 0 mm 3 m/s 746 mmHg 80%
    01:00 +8°C° 0 mm 3 m/s 746 mmHg 81%
    02:00 +8°C° 0 mm 3 m/s 745 mmHg 80%
    03:00 +8°C° 0 mm 3 m/s 745 mmHg 80%
    04:00 +8°C° 0 mm 3 m/s 745 mmHg 79%
    05:00 +7°C° 0 mm 3 m/s 745 mmHg 79%
    06:00 +7°C° 0 mm 3 m/s 745 mmHg 79%
    07:00 +6°C° 0 mm 4 m/s 745 mmHg 79%
    08:00 +8°C° 0 mm 4 m/s 745 mmHg 76%
    09:00 +11°C° 0 mm 4 m/s 745 mmHg 74%
    10:00 +13°C° 0 mm 5 m/s 745 mmHg 71%
    11:00 +13°C° 0 mm 5 m/s 744 mmHg 72%
    12:00 +14°C° 0 mm 5 m/s 744 mmHg 73%
    13:00 +14°C° 0 mm 6 m/s 743 mmHg 74%
    14:00 +13°C° 0 mm 5 m/s 743 mmHg 78%
    15:00 +13°C° 0 mm 5 m/s 743 mmHg 82%
    16:00 +12°C° 0 mm 5 m/s 742 mmHg 85%
    17:00 +10°C° 0 mm 5 m/s 743 mmHg 87%
    18:00 +10°C° 0 mm 5 m/s 743 mmHg 88%
    19:00 +9°C° 0 mm 5 m/s 743 mmHg 89%
    20:00 +9°C° 0 mm 5 m/s 743 mmHg 89%
    21:00 +9°C° 0 mm 5 m/s 743 mmHg 88%
    22:00 +10°C° 0 mm 5 m/s 743 mmHg 88%
    23:00 +10°C° 0 mm 5 m/s 743 mmHg 89%

    16 Decembrie, Sâmbătă

    Timp Temperatura Precipitaţii Vânt Presiune Umiditate
    00:00 +10°C° 0 mm 5 m/s 742 mmHg 89%
    01:00 +10°C° 0 mm 5 m/s 742 mmHg 90%
    02:00 +10°C° 0 mm 5 m/s 742 mmHg 90%
    03:00 +10°C° 0 mm 5 m/s 742 mmHg 90%
    04:00 +10°C° 0 mm 5 m/s 741 mmHg 90%
    05:00 +10°C° 0 mm 5 m/s 741 mmHg 90%
    06:00 +10°C° 0 mm 5 m/s 741 mmHg 90%
    07:00 +10°C° 0 mm 5 m/s 741 mmHg 90%
    08:00 +12°C° 0,1 mm 5 m/s 741 mmHg 88%
    09:00 +13°C° 0,1 mm 5 m/s 741 mmHg 86%
    10:00 +14°C° 0,1 mm 5 m/s 740 mmHg 84%
    11:00 +14°C° 0,4 mm 5 m/s 740 mmHg 84%
    12:00 +14°C° 0,4 mm 5 m/s 739 mmHg 84%
    13:00 +14°C° 0,4 mm 5 m/s 739 mmHg 83%
    14:00 +13°C° 1 mm 5 m/s 738 mmHg 86%
    15:00 +13°C° 1 mm 5 m/s 738 mmHg 88%
    16:00 +12°C° 1 mm 4 m/s 737 mmHg 90%
    17:00 +12°C° 2,4 mm 4 m/s 737 mmHg 92%
    18:00 +11°C° 2,4 mm 3 m/s 737 mmHg 93%
    19:00 +11°C° 2,4 mm 3 m/s 737 mmHg 94%
    20:00 +11°C° 3,1 mm 3 m/s 736 mmHg 94%
    21:00 +11°C° 3,1 mm 3 m/s 736 mmHg 93%
    22:00 +11°C° 3,1 mm 3 m/s 736 mmHg 92%
    23:00 +12°C° 1,2 mm 2 m/s 736 mmHg 94%

    17 Decembrie, Duminică

    Timp Temperatura Precipitaţii Vânt Presiune Umiditate
    00:00 +12°C° 1,2 mm 2 m/s 736 mmHg 95%
    01:00 +10°C° 1,2 mm 2 m/s 736 mmHg 96%
    02:00 +10°C° 0,9 mm 2 m/s 737 mmHg 96%
    03:00 +10°C° 0,9 mm 3 m/s 737 mmHg 96%
    04:00 +10°C° 0,9 mm 3 m/s 737 mmHg 96%
    05:00 +10°C° 1 mm 3 m/s 738 mmHg 95%
    06:00 +10°C° 1 mm 3 m/s 739 mmHg 95%
    07:00 +10°C° 1 mm 3 m/s 740 mmHg 94%
    08:00 +10°C° 0,3 mm 3 m/s 740 mmHg 90%
    09:00 +10°C° 0,3 mm 3 m/s 741 mmHg 86%
    10:00 +11°C° 0,3 mm 3 m/s 741 mmHg 82%
    11:00 +11°C° 0,2 mm 3 m/s 741 mmHg 79%
    12:00 +11°C° 0,2 mm 3 m/s 742 mmHg 76%
    13:00 +11°C° 0,2 mm 3 m/s 742 mmHg 74%
    14:00 +10°C° 0,3 mm 2 m/s 742 mmHg 77%
    15:00 +10°C° 0,3 mm 2 m/s 742 mmHg 80%
    16:00 +9°C° 0,3 mm 2 m/s 743 mmHg 83%
    17:00 +9°C° 0,2 mm 2 m/s 743 mmHg 85%
    18:00 +9°C° 0,2 mm 1 m/s 744 mmHg 86%
    19:00 +9°C° 0,2 mm 1 m/s 744 mmHg 88%
    20:00 +9°C° 0,1 mm 1 m/s 745 mmHg 88%
    21:00 +8°C° 0,1 mm 1 m/s 745 mmHg 88%
    22:00 +8°C° 0,1 mm 1 m/s 746 mmHg 87%
    23:00 +8°C° 0,1 mm 1 m/s 746 mmHg 87%

    18 Decembrie, Luni

    Timp Temperatura Precipitaţii Vânt Presiune Umiditate
    00:00 +8°C° 0,1 mm 1 m/s 746 mmHg 87%
    01:00 +8°C° 0,1 mm 1 m/s 746 mmHg 87%
    02:00 +8°C° 0,3 mm 1 m/s 746 mmHg 87%
    03:00 +8°C° 0,3 mm 1 m/s 746 mmHg 87%
    04:00 +8°C° 0,3 mm 1 m/s 746 mmHg 87%
    05:00 +8°C° 0,2 mm 1 m/s 747 mmHg 86%
    06:00 +6°C° 0,2 mm 2 m/s 747 mmHg 86%
    07:00 +6°C° 0,2 mm 2 m/s 747 mmHg 86%
    08:00 +7°C° 0,1 mm 2 m/s 747 mmHg 82%
    09:00 +7°C° 0,1 mm 2 m/s 748 mmHg 78%
    10:00 +8°C° 0,1 mm 2 m/s 748 mmHg 74%
    11:00 +8°C° 0,2 mm 2 m/s 748 mmHg 73%
    12:00 +8°C° 0,2 mm 2 m/s 747 mmHg 72%
    13:00 +9°C° 0,2 mm 3 m/s 747 mmHg 71%
    14:00 +8°C° 0,3 mm 3 m/s 747 mmHg 74%
    15:00 +7°C° 0,3 mm 3 m/s 747 mmHg 77%
    16:00 +7°C° 0,3 mm 3 m/s 747 mmHg 80%
    17:00 +5°C° 0,1 mm 3 m/s 747 mmHg 81%
    18:00 +5°C° 0,1 mm 3 m/s 747 mmHg 82%
    19:00 +4°C° 0,1 mm 3 m/s 747 mmHg 83%
    20:00 +4°C° 0 mm 3 m/s 748 mmHg 83%
    21:00 +4°C° 0 mm 3 m/s 748 mmHg 84%
    22:00 +3°C° 0 mm 3 m/s 748 mmHg 84%
    23:00 +4°C° 0 mm 2 m/s 748 mmHg 84%
    Arată mai mult